| time (UTC) | temp F | wind direction | speed MPH | gust MPH | rain 1hr in | rain 24hr in | rain mn in | humidity % | barometer mb |
| 20260906043054 | 61 | 56 | 0.0 | 0.0 | 0.00 | 0.00 | 0.00 | 85 | 1012.1 |
| 20260906041551 | 62 | 56 | 0.0 | 0.0 | 0.00 | 0.00 | 0.00 | 85 | 1012.1 |
| 20260906040051 | 62 | 56 | 0.0 | 0.0 | 0.00 | 0.00 | 0.00 | 85 | 1012.1 |
| 20260906034549 | 62 | 56 | 0.0 | 0.0 | 0.00 | 0.00 | 0.00 | 85 | 1012.0 |
| 20260906033049 | 62 | 56 | 0.0 | 0.0 | 0.00 | 0.00 | 0.00 | 85 | 1011.9 |
| 20260906031549 | 62 | 56 | 0.0 | 0.0 | 0.00 | 0.00 | 0.00 | 84 | 1011.8 |
| 20260906030051 | 62 | 56 | 0.0 | 0.0 | 0.00 | 0.00 | 0.00 | 84 | 1011.9 |
| 20260906024548 | 62 | 56 | 0.0 | 0.0 | 0.00 | 0.00 | 0.00 | 84 | 1011.9 |
| 20260906023048 | 63 | 56 | 0.0 | 0.0 | 0.00 | 0.00 | 0.00 | 83 | 1011.8 |
| 20260906021553 | 63 | 56 | 0.0 | 0.0 | 0.00 | 0.00 | 0.00 | 83 | 1011.9 |
| 20260906020045 | 63 | 56 | 0.0 | 0.0 | 0.00 | 0.00 | 0.00 | 83 | 1011.9 |
| 20260906014548 | 63 | 56 | 0.0 | 0.0 | 0.00 | 0.00 | 0.00 | 83 | 1011.9 |
| 20260906013045 | 63 | 56 | 0.0 | 0.0 | 0.00 | 0.00 | 0.00 | 83 | 1012.0 |
| 20260906011551 | 63 | 56 | 0.0 | 2.0 | 0.00 | 0.00 | 0.00 | 83 | 1011.9 |
| 20260906010043 | 64 | 59 | 0.0 | 1.0 | 0.00 | 0.00 | 0.00 | 83 | 1011.9 |
| 20260906004543 | 64 | 59 | 0.0 | 0.0 | 0.00 | 0.00 | 0.00 | 82 | 1011.7 |
| 20260906003040 | 64 | 59 | 0.0 | 0.0 | 0.00 | 0.00 | 0.00 | 82 | 1011.5 |
| 20260906001539 | 64 | 59 | 0.0 | 0.0 | 0.00 | 0.00 | 0.00 | 81 | 1011.4 |
| 20260906000040 | 64 | 59 | 0.0 | 0.0 | 0.00 | 0.00 | 0.00 | 81 | 1011.1 |
| 20260905234536 | 64 | 59 | 0.0 | 0.0 | 0.00 | 0.00 | 0.00 | 80 | 1011.1 |
| 20260905233053 | 65 | 59 | 0.0 | 3.0 | 0.00 | 0.00 | 0.00 | 80 | 1011.0 |
| 20260905231548 | 65 | 59 | 0.0 | 1.0 | 0.00 | 0.00 | 0.00 | 79 | 1011.1 |
| 20260905230034 | 65 | 59 | 0.0 | 2.0 | 0.00 | 0.00 | 0.00 | 79 | 1011.0 |
| 20260905224541 | 66 | 58 | 1.0 | 5.0 | 0.00 | 0.00 | 0.00 | 79 | 1011.1 |
| 20260905223033 | 66 | 76 | 0.0 | 6.0 | 0.00 | 0.00 | 0.00 | 78 | 1011.0 |
| 20260905221537 | 67 | 103 | 1.0 | 7.0 | 0.00 | 0.00 | 0.00 | 77 | 1010.9 |
| 20260905220030 | 67 | 57 | 1.0 | 10.0 | 0.00 | 0.00 | 0.00 | 77 | 1010.8 |
| 20260905214527 | 68 | 69 | 4.0 | 9.0 | 0.00 | 0.00 | 0.00 | 77 | 1010.4 |
| 20260905213033 | 68 | 96 | 3.0 | 8.0 | 0.00 | 0.00 | 0.00 | 77 | 1010.2 |
| 20260905211528 | 68 | 76 | 3.0 | 11.0 | 0.00 | 0.00 | 0.00 | 76 | 1010.1 |
| 20260905210028 | 69 | 80 | 5.0 | 10.0 | 0.00 | 0.00 | 0.00 | 75 | 1010.0 |
| 20260905204523 | 69 | 88 | 2.0 | 8.0 | 0.00 | 0.00 | 0.00 | 76 | 1010.0 |
| 20260905203020 | 69 | 94 | 2.0 | 9.0 | 0.00 | 0.00 | 0.00 | 74 | 1009.8 |
| 20260905201525 | 69 | 76 | 1.0 | 10.0 | 0.00 | 0.00 | 0.00 | 75 | 1009.6 |
| 20260905200018 | 70 | 116 | 2.0 | 11.0 | 0.00 | 0.00 | 0.00 | 74 | 1009.6 |
| 20260905194517 | 69 | 77 | 1.0 | 7.0 | 0.00 | 0.00 | 0.00 | 75 | 1009.5 |
| 20260905193017 | 69 | 281 | 0.0 | 8.0 | 0.00 | 0.00 | 0.00 | 76 | 1009.4 |
| 20260905191516 | 70 | 121 | 2.0 | 8.0 | 0.00 | 0.00 | 0.00 | 75 | 1009.5 |
| 20260905190015 | 71 | 108 | 2.0 | 7.0 | 0.00 | 0.00 | 0.00 | 75 | 1009.4 |
| 20260905184520 | 71 | 94 | 2.0 | 6.0 | 0.00 | 0.00 | 0.00 | 75 | 1009.4 |
| 20260905183014 | 71 | 98 | 2.0 | 6.0 | 0.00 | 0.00 | 0.00 | 75 | 1009.6 |
| 20260905181513 | 70 | 94 | 2.0 | 8.0 | 0.00 | 0.00 | 0.00 | 75 | 1009.7 |
| 20260905180012 | 70 | 98 | 1.0 | 12.0 | 0.00 | 0.00 | 0.00 | 76 | 1009.4 |
| 20260905174514 | 69 | 103 | 3.0 | 8.0 | 0.00 | 0.00 | 0.00 | 76 | 1009.4 |
| 20260905173023 | 69 | 89 | 2.0 | 5.0 | 0.00 | 0.00 | 0.00 | 76 | 1009.3 |
| 20260905171511 | 69 | 101 | 3.0 | 8.0 | 0.00 | 0.00 | 0.00 | 75 | 1009.3 |
| 20260905170007 | 70 | 152 | 2.0 | 7.0 | 0.00 | 0.00 | 0.00 | 74 | 1009.2 |
| 20260905164506 | 70 | 63 | 4.0 | 13.0 | 0.00 | 0.00 | 0.00 | 74 | 1009.2 |
| 20260905163004 | 70 | 95 | 3.0 | 11.0 | 0.00 | 0.00 | 0.00 | 75 | 1008.9 |
| 20260905161503 | 70 | 91 | 2.0 | 10.0 | 0.00 | 0.00 | 0.00 | 75 | 1008.9 |
| 20260905160003 | 71 | 113 | 4.0 | 8.0 | 0.00 | 0.00 | 0.00 | 73 | 1008.9 |
| 20260905154502 | 72 | 91 | 2.0 | 6.0 | 0.00 | 0.00 | 0.00 | 73 | 1008.9 |
| 20260905153002 | 72 | 110 | 2.0 | 8.0 | 0.00 | 0.00 | 0.00 | 72 | 1008.8 |
| 20260905151600 | 73 | 39 | 1.0 | 10.0 | 0.00 | 0.00 | 0.00 | 72 | 1008.6 |
| 20260905150056 | 71 | 155 | 1.0 | 9.0 | 0.00 | 0.00 | 0.00 | 74 | 1008.7 |
| 20260905144555 | 70 | 138 | 2.0 | 6.0 | 0.00 | 0.00 | 0.00 | 74 | 1008.7 |
| 20260905143054 | 70 | 296 | 3.0 | 6.0 | 0.00 | 0.00 | 0.00 | 75 | 1008.7 |
| 20260905141601 | 70 | 75 | 2.0 | 9.0 | 0.00 | 0.00 | 0.00 | 77 | 1008.6 |
| 20260905140050 | 69 | 209 | 0.0 | 4.0 | 0.00 | 0.00 | 0.00 | 78 | 1008.5 |
| 20260905134550 | 69 | 326 | 1.0 | 6.0 | 0.00 | 0.00 | 0.00 | 79 | 1008.8 |
| 20260905133043 | 68 | 265 | 0.0 | 4.0 | 0.00 | 0.00 | 0.00 | 80 | 1008.9 |
| 20260905131555 | 67 | 294 | 0.0 | 5.0 | 0.00 | 0.00 | 0.00 | 82 | 1008.7 |
| 20260905130038 | 66 | 259 | 1.0 | 5.0 | 0.00 | 0.00 | 0.00 | 83 | 1008.5 |
| 20260905124544 | 64 | 274 | 0.0 | 7.0 | 0.00 | 0.00 | 0.00 | 85 | 1008.5 |
| 20260905123029 | 63 | 294 | 1.0 | 6.0 | 0.00 | 0.00 | 0.00 | 88 | 1008.4 |
| 20260905121531 | 62 | 265 | 0.0 | 4.0 | 0.00 | 0.00 | 0.00 | 90 | 1008.3 |
| 20260905120029 | 61 | 273 | 0.0 | 3.0 | 0.00 | 0.00 | 0.00 | 91 | 1008.2 |
| 20260905114537 | 60 | 277 | 0.0 | 4.0 | 0.00 | 0.00 | 0.00 | 91 | 1008.1 |
| 20260905113024 | 59 | 302 | 0.0 | 3.0 | 0.00 | 0.00 | 0.00 | 92 | 1008.1 |
| 20260905111527 | 58 | 302 | 0.0 | 0.0 | 0.00 | 0.00 | 0.00 | 91 | 1008.1 |
| 20260905110022 | 58 | 302 | 0.0 | 1.0 | 0.00 | 0.00 | 0.00 | 91 | 1007.8 |
| 20260905104521 | 58 | 302 | 0.0 | 0.0 | 0.00 | 0.00 | 0.00 | 90 | 1007.7 |
| 20260905103029 | 57 | 302 | 0.0 | 0.0 | 0.00 | 0.00 | 0.00 | 90 | 1007.7 |
| 20260905101526 | 57 | 302 | 0.0 | 0.0 | 0.00 | 0.00 | 0.00 | 90 | 1007.6 |
| 20260905100020 | 57 | 302 | 0.0 | 0.0 | 0.00 | 0.00 | 0.00 | 89 | 1007.6 |
| 20260905094519 | 57 | 302 | 0.0 | 0.0 | 0.00 | 0.00 | 0.00 | 89 | 1007.6 |
| 20260905093018 | 58 | 302 | 0.0 | 0.0 | 0.00 | 0.00 | 0.00 | 89 | 1007.5 |
| 20260905091518 | 58 | 302 | 0.0 | 0.0 | 0.00 | 0.00 | 0.00 | 89 | 1007.5 |
| 20260905090016 | 58 | 302 | 0.0 | 0.0 | 0.00 | 0.00 | 0.00 | 89 | 1007.6 |
| 20260905084544 | 58 | 302 | 0.0 | 0.0 | 0.00 | 0.00 | 0.00 | 89 | 1007.5 |
| 20260905083019 | 58 | 302 | 0.0 | 0.0 | 0.00 | 0.00 | 0.00 | 89 | 1007.5 |
| 20260905081512 | 59 | 302 | 0.0 | 0.0 | 0.00 | 0.00 | 0.00 | 89 | 1007.5 |
| 20260905080011 | 59 | 302 | 0.0 | 0.0 | 0.00 | 0.00 | 0.00 | 89 | 1007.5 |
| 20260905074511 | 59 | 302 | 0.0 | 0.0 | 0.00 | 0.00 | 0.00 | 89 | 1007.5 |
| 20260905073015 | 59 | 302 | 0.0 | 0.0 | 0.00 | 0.00 | 0.00 | 89 | 1007.6 |
| 20260905071508 | 59 | 302 | 0.0 | 0.0 | 0.00 | 0.00 | 0.00 | 88 | 1007.5 |
| 20260905070006 | 59 | 302 | 0.0 | 0.0 | 0.00 | 0.00 | 0.00 | 88 | 1007.6 |
| 20260905064504 | 60 | 302 | 0.0 | 0.0 | 0.00 | 0.00 | 0.00 | 88 | 1007.9 |
| 20260905063003 | 60 | 302 | 0.0 | 0.0 | 0.00 | 0.00 | 0.00 | 88 | 1008.0 |
| 20260905061502 | 60 | 302 | 0.0 | 0.0 | 0.00 | 0.00 | 0.00 | 88 | 1008.1 |
| 20260905060002 | 60 | 302 | 0.0 | 0.0 | 0.00 | 0.00 | 0.00 | 88 | 1008.1 |
| 20260905054604 | 60 | 302 | 0.0 | 0.0 | 0.00 | 0.00 | 0.00 | 88 | 1008.1 |
| 20260905053111 | 60 | 302 | 0.0 | 0.0 | 0.00 | 0.00 | 0.00 | 88 | 1008.1 |
| 20260905051557 | 61 | 302 | 0.0 | 0.0 | 0.00 | 0.00 | 0.00 | 88 | 1008.2 |
| 20260905050056 | 61 | 302 | 0.0 | 1.0 | 0.00 | 0.00 | 0.00 | 88 | 1008.3 |
| 20260905044554 | 61 | 302 | 0.0 | 0.0 | 0.00 | 0.00 | 0.00 | 87 | 1008.2 |